EN

Hourly Weather Pashena Balka

Today, 19 April, Monday

Time Temperature Precipitation Wind Pressure Humidity
00:00 +10°C° 0 mm 1 mps 750 mmHg 68%
01:00 +10°C° 0 mm 1 mps 750 mmHg 70%
02:00 +9°C° 0 mm 1 mps 750 mmHg 72%
03:00 +9°C° 0 mm 1 mps 750 mmHg 75%
04:00 +9°C° 0 mm 1 mps 750 mmHg 78%
05:00 +8°C° 0 mm 2 mps 749 mmHg 81%
06:00 +9°C° 0 mm 2 mps 749 mmHg 78%
07:00 +9°C° 0 mm 2 mps 750 mmHg 74%
08:00 +10°C° 0 mm 2 mps 750 mmHg 71%
09:00 +12°C° 0.1 mm 2 mps 749 mmHg 66%
10:00 +13°C° 0.1 mm 2 mps 749 mmHg 62%
11:00 +14°C° 0.1 mm 2 mps 749 mmHg 57%
12:00 +14°C° 0.1 mm 2 mps 749 mmHg 56%
13:00 +14°C° 0.1 mm 2 mps 749 mmHg 54%
14:00 +14°C° 0.1 mm 2 mps 749 mmHg 53%
15:00 +14°C° 0.1 mm 1 mps 749 mmHg 54%
16:00 +14°C° 0.1 mm 1 mps 748 mmHg 55%
17:00 +14°C° 0.1 mm 1 mps 748 mmHg 56%
18:00 +13°C° 0 mm 1 mps 748 mmHg 59%
19:00 +13°C° 0 mm 1 mps 748 mmHg 62%
20:00 +12°C° 0 mm 2 mps 748 mmHg 64%
21:00 +12°C° 0 mm 2 mps 748 mmHg 66%
22:00 +10°C° 0 mm 2 mps 747 mmHg 68%
23:00 +10°C° 0 mm 2 mps 747 mmHg 70%

Tomorrow, 20 April, Tuesday

Time Temperature Precipitation Wind Pressure Humidity
00:00 +10°C° 0 mm 2 mps 746 mmHg 71%
01:00 +9°C° 0 mm 2 mps 746 mmHg 73%
02:00 +9°C° 0 mm 2 mps 746 mmHg 74%
03:00 +9°C° 0 mm 2 mps 745 mmHg 75%
04:00 +9°C° 0 mm 3 mps 744 mmHg 76%
05:00 +9°C° 0 mm 3 mps 744 mmHg 76%
06:00 +9°C° 0.1 mm 3 mps 744 mmHg 76%
07:00 +10°C° 0.1 mm 3 mps 743 mmHg 75%
08:00 +10°C° 0.1 mm 3 mps 743 mmHg 74%
09:00 +10°C° 0.9 mm 4 mps 743 mmHg 79%
10:00 +10°C° 0.9 mm 4 mps 742 mmHg 83%
11:00 +8°C° 0.9 mm 4 mps 742 mmHg 87%
12:00 +8°C° 1.4 mm 5 mps 741 mmHg 87%
13:00 +8°C° 1.4 mm 5 mps 741 mmHg 86%
14:00 +9°C° 1.4 mm 6 mps 741 mmHg 86%
15:00 +9°C° 0.6 mm 6 mps 741 mmHg 85%
16:00 +9°C° 0.6 mm 6 mps 741 mmHg 84%
17:00 +9°C° 0.6 mm 6 mps 741 mmHg 83%
18:00 +9°C° 0.1 mm 6 mps 742 mmHg 84%
19:00 +8°C° 0.1 mm 5 mps 742 mmHg 84%
20:00 +8°C° 0.1 mm 4 mps 743 mmHg 85%
21:00 +7°C° 0.1 mm 4 mps 743 mmHg 85%
22:00 +7°C° 0.1 mm 4 mps 744 mmHg 84%
23:00 +7°C° 0.1 mm 4 mps 744 mmHg 84%

Day after tomorrow, 21 April, Wednesday

Time Temperature Precipitation Wind Pressure Humidity
00:00 +6°C° 0 mm 4 mps 745 mmHg 84%
01:00 +5°C° 0 mm 4 mps 745 mmHg 84%
02:00 +5°C° 0 mm 4 mps 745 mmHg 84%
03:00 +5°C° 0 mm 3 mps 746 mmHg 85%
04:00 +4°C° 0 mm 3 mps 746 mmHg 86%
05:00 +4°C° 0 mm 3 mps 747 mmHg 87%
06:00 +6°C° 0 mm 4 mps 747 mmHg 80%
07:00 +8°C° 0 mm 4 mps 748 mmHg 73%
08:00 +10°C° 0 mm 4 mps 748 mmHg 66%
09:00 +10°C° 0 mm 5 mps 748 mmHg 61%
10:00 +13°C° 0 mm 5 mps 748 mmHg 55%
11:00 +14°C° 0 mm 5 mps 749 mmHg 49%
12:00 +14°C° 0 mm 5 mps 749 mmHg 46%
13:00 +15°C° 0 mm 5 mps 749 mmHg 44%
14:00 +17°C° 0 mm 4 mps 749 mmHg 41%
15:00 +15°C° 0 mm 4 mps 749 mmHg 45%
16:00 +14°C° 0 mm 4 mps 749 mmHg 50%
17:00 +14°C° 0 mm 4 mps 750 mmHg 54%
18:00 +13°C° 0.1 mm 4 mps 750 mmHg 59%
19:00 +12°C° 0.1 mm 3 mps 750 mmHg 64%
20:00 +10°C° 0.1 mm 3 mps 751 mmHg 70%
21:00 +10°C° 0.1 mm 3 mps 751 mmHg 74%
22:00 +10°C° 0.1 mm 3 mps 751 mmHg 78%
23:00 +9°C° 0.1 mm 2 mps 751 mmHg 82%

22 April, Thursday

Time Temperature Precipitation Wind Pressure Humidity
00:00 +9°C° 0 mm 2 mps 751 mmHg 84%
01:00 +9°C° 0 mm 3 mps 751 mmHg 86%
02:00 +8°C° 0 mm 3 mps 751 mmHg 88%
03:00 +8°C° 0 mm 3 mps 752 mmHg 89%
04:00 +7°C° 0 mm 3 mps 752 mmHg 91%
05:00 +7°C° 0 mm 3 mps 752 mmHg 92%
06:00 +8°C° 0 mm 3 mps 752 mmHg 85%
07:00 +10°C° 0 mm 3 mps 752 mmHg 78%
08:00 +11°C° 0 mm 4 mps 753 mmHg 72%
09:00 +12°C° 0.1 mm 4 mps 753 mmHg 66%
10:00 +14°C° 0.1 mm 3 mps 753 mmHg 61%
11:00 +16°C° 0.1 mm 3 mps 753 mmHg 55%
12:00 +15°C° 0.1 mm 4 mps 753 mmHg 53%
13:00 +15°C° 0.1 mm 4 mps 752 mmHg 51%
14:00 +17°C° 0.1 mm 4 mps 752 mmHg 49%
15:00 +16°C° 0 mm 3 mps 752 mmHg 53%
16:00 +14°C° 0 mm 3 mps 753 mmHg 57%
17:00 +15°C° 0 mm 2 mps 753 mmHg 61%
18:00 +14°C° 0 mm 2 mps 753 mmHg 63%
19:00 +13°C° 0 mm 3 mps 753 mmHg 65%
20:00 +13°C° 0 mm 3 mps 753 mmHg 66%
21:00 +12°C° 0 mm 3 mps 753 mmHg 68%
22:00 +12°C° 0 mm 3 mps 753 mmHg 70%
23:00 +11°C° 0 mm 3 mps 753 mmHg 71%

23 April, Friday

Time Temperature Precipitation Wind Pressure Humidity
00:00 +11°C° 0 mm 3 mps 753 mmHg 72%
01:00 +10°C° 0 mm 3 mps 753 mmHg 73%
02:00 +10°C° 0 mm 3 mps 753 mmHg 75%
03:00 +9°C° 0 mm 3 mps 753 mmHg 77%
04:00 +9°C° 0 mm 3 mps 753 mmHg 79%
05:00 +8°C° 0 mm 3 mps 753 mmHg 82%
06:00 +10°C° 0 mm 4 mps 753 mmHg 75%
07:00 +11°C° 0 mm 4 mps 753 mmHg 69%
08:00 +13°C° 0 mm 5 mps 753 mmHg 62%
09:00 +14°C° 0 mm 5 mps 753 mmHg 57%
10:00 +16°C° 0 mm 6 mps 753 mmHg 52%
11:00 +17°C° 0 mm 6 mps 753 mmHg 47%
12:00 +17°C° 0 mm 6 mps 753 mmHg 45%
13:00 +18°C° 0 mm 7 mps 752 mmHg 43%
14:00 +18°C° 0 mm 7 mps 752 mmHg 40%
15:00 +17°C° 0 mm 6 mps 752 mmHg 43%
16:00 +17°C° 0 mm 6 mps 751 mmHg 47%
17:00 +16°C° 0 mm 5 mps 751 mmHg 50%
18:00 +15°C° 0 mm 5 mps 751 mmHg 55%
19:00 +14°C° 0 mm 4 mps 751 mmHg 60%
20:00 +12°C° 0 mm 4 mps 751 mmHg 65%
21:00 +12°C° 0 mm 4 mps 751 mmHg 68%
22:00 +11°C° 0 mm 4 mps 751 mmHg 71%
23:00 +10°C° 0 mm 4 mps 751 mmHg 74%

24 April, Saturday

Time Temperature Precipitation Wind Pressure Humidity
00:00 +10°C° 0 mm 4 mps 751 mmHg 76%
01:00 +8°C° 0 mm 4 mps 751 mmHg 79%
02:00 +9°C° 0 mm 3 mps 750 mmHg 81%
03:00 +9°C° 0 mm 3 mps 750 mmHg 83%
04:00 +8°C° 0 mm 3 mps 750 mmHg 84%
05:00 +8°C° 0 mm 3 mps 750 mmHg 86%
06:00 +8°C° 0.1 mm 3 mps 751 mmHg 85%
07:00 +7°C° 0.1 mm 4 mps 751 mmHg 84%
08:00 +6°C° 0.1 mm 4 mps 751 mmHg 84%
09:00 +7°C° 0 mm 4 mps 752 mmHg 79%
10:00 +8°C° 0 mm 4 mps 752 mmHg 75%
11:00 +9°C° 0 mm 3 mps 752 mmHg 70%
12:00 +10°C° 0 mm 3 mps 752 mmHg 65%
13:00 +11°C° 0 mm 3 mps 751 mmHg 59%
14:00 +12°C° 0 mm 3 mps 751 mmHg 54%
15:00 +12°C° 0 mm 3 mps 751 mmHg 53%
16:00 +13°C° 0 mm 2 mps 751 mmHg 53%
17:00 +13°C° 0 mm 2 mps 751 mmHg 52%
18:00 +12°C° 0 mm 2 mps 751 mmHg 56%
19:00 +10°C° 0 mm 2 mps 751 mmHg 60%
20:00 +9°C° 0 mm 2 mps 751 mmHg 65%
21:00 +9°C° 0 mm 2 mps 751 mmHg 67%
22:00 +8°C° 0 mm 2 mps 750 mmHg 69%
23:00 +8°C° 0 mm 2 mps 750 mmHg 71%
Show more

We Need Your Consent

Meteoprog and our Service Providers may store and access personal data such as cookies, device identifiers or other similar technologies on your device and process such data to personalise content and ads, as well as provide social media features and to analyse the traffic.

  • Store and/or access information on your device

    Cookies, device identifiers or other information can be stored or accessed on your device for the purposes indicated above.

  • Personalised ads and content, ad and content measurement, audience insights, and products development

    Ads and content can be personalised based on a profile. More data can be added to better personalise ads and content. Ad and content performance can be measured. Insights about the audience who saw the ads and content can be derived. Such data can be used to develop or improve user’s experience, systems and software.

By clicking ‘I Agree’ you will allow the use of indicated cookies, device identifiers, web beacons or other similar technologies. Your settings can be changed in the browser on your device.

For certain purposes, legitimate interests may be relied on, rather than consent. You can read more about this in our Privacy and Cookie Policy.